Overview Statistics Trail Chart Weather Telemetry Raw packets
 

This is the latest recevied weather packets stored in our database for station/object W0WFX-2. If no packets are shown the sender has not sent any weather packets the latest 10 day(s).

<< 41 42 43 44 45 46 47 >>
Time Temp. Humidity Pressure Rain* Wind** Luminosity Snow
1788362091 33.33° C 50% 1015.8 hPa 0 mm - 449 W/m² -
1788361790 32.78° C 50% 1015.9 hPa 0 mm - 441 W/m² -
1788361486 32.78° C 51% 1015.9 hPa 0 mm - 506 W/m² -
1788361186 32.22° C 51% 1016 hPa 0 mm - 409 W/m² -
1788360882 31.67° C 52% 1015.9 hPa 0 mm - 373 W/m² -
1788360582 31.11° C 55% 1015.7 hPa 0 mm - 381 W/m² -
1788360278 30.56° C 56% 1015.9 hPa 0 mm - 366 W/m² -
1788359977 30.56° C 58% 1015.8 hPa 0 mm - 103 W/m² -
1788359673 30° C 59% 1015.8 hPa 0 mm - 146 W/m² -
1788359368 29.44° C 60% 1015.8 hPa 0 mm - 86 W/m² -
1788359065 29.44° C 60% 1015.8 hPa 0 mm - 88 W/m² -
1788358760 28.89° C 61% 1015.9 hPa 0 mm - 78 W/m² -
1788358455 28.89° C 61% 1016 hPa 0 mm - 80 W/m² -
1788358154 28.89° C 61% 1016 hPa 0 mm - 76 W/m² -
1788357850 28.33° C 61% 1016 hPa 0 mm - 81 W/m² -
1788357549 28.33° C 61% 1016.1 hPa 0 mm - 127 W/m² -
1788357246 27.78° C 62% 1016 hPa 0 mm - 68 W/m² -
1788356944 27.78° C 63% 1016.1 hPa 0 mm - 64 W/m² -
1788356640 27.78° C 63% 1015.9 hPa 0 mm - 66 W/m² -
1788356335 27.22° C 64% 1016 hPa 0 mm - 68 W/m² -
1788356034 27.22° C 65% 1016 hPa 0 mm - 59 W/m² -
1788355730 26.67° C 66% 1015.8 hPa 0 mm - 58 W/m² -
1788355425 26.67° C 67% 1015.9 hPa 0 mm - 78 W/m² -
1788355120 26.11° C 68% 1015.9 hPa 0 mm - 52 W/m² -
1788354817 26.11° C 68% 1015.8 hPa 0 mm - 50 W/m² -

* Rain latest hour (hover to see other rain measurements)
** Current wind speed in m/s (hover to see current wind gust speed)